DH7HU-3 Weather Reports


time (UTC)temp
C
wind
direction
speed
KPH
gust
KPH
rain 1hr
cm
rain 24hr
cm
rain mn
cm
humidity
%
barometer
mb
20260507061248 6 0.0 0.0 0.00 0.00 0.00 46 1004.2
20260507060946 6 0.0 0.0 0.00 0.00 0.00 47 1004.1
20260507060341 6 0.0 0.0 0.00 0.00 0.00 47 1004.0
20260507055736 6 0.0 0.0 0.00 0.00 0.00 45 1004.0
20260507055434 6 0.0 0.0 0.00 0.00 0.00 46 1004.0
20260507055131 6 0.0 0.0 0.00 0.00 0.00 45 1004.0
20260507054828 6 0.0 0.0 0.00 0.00 0.00 46 1004.0
20260507054218 6 0.0 0.0 0.00 0.00 0.00 46 1003.9
20260507053612 6 0.0 0.0 0.00 0.00 0.00 47 1003.9
20260507053007 5 0.0 0.0 0.00 0.00 0.00 48 1003.7
20260507052705 5 0.0 0.0 0.00 0.00 0.00 48 1003.7
20260507051745 6 0.0 0.0 0.00 0.00 0.00 46 1003.7
20260507051442 6 0.0 0.0 0.00 0.00 0.00 45 1003.7
20260507051140 6 0.0 0.0 0.00 0.00 0.00 46 1003.6
20260507050837 6 0.0 0.0 0.00 0.00 0.00 47 1003.6
20260507050535 6 0.0 0.0 0.00 0.00 0.00 47 1003.6
20260507050232 6 0.0 0.0 0.00 0.00 0.00 47 1003.6
20260507045623 6 0.0 0.0 0.00 0.00 0.00 47 1003.5
20260507044718 6 0.0 0.0 0.00 0.00 0.00 46 1003.4
20260507044417 6 0.0 0.0 0.00 0.00 0.00 45 1003.4
20260507043813 6 0.0 0.0 0.00 0.00 0.00 45 1003.3
20260507043510 6 0.0 0.0 0.00 0.00 0.00 45 1003.3
20260507042906 6 0.0 0.0 0.00 0.00 0.00 46 1003.2
20260507042559 6 0.0 0.0 0.00 0.00 0.00 47 1003.2
20260507041652 5 0.0 0.0 0.00 0.00 0.00 49 1003.2
20260507041047 5 0.0 0.0 0.00 0.00 0.00 50 1003.1
20260507040745 4 0.0 0.0 0.00 0.00 0.00 50 1003.1
20260507040444 5 0.0 0.0 0.00 0.00 0.00 50 1002.9
20260507040142 5 0.0 0.0 0.00 0.00 0.00 51 1002.9
20260507035538 3 0.0 0.0 0.00 0.00 0.00 55 1002.9
20260507035236 3 0.0 0.0 0.00 0.00 0.00 53 1002.8
20260507034933 3 0.0 0.0 0.00 0.00 0.00 54 1002.8
20260507034328 4 0.0 0.0 0.00 0.00 0.00 52 1002.7
20260507034027 3 0.0 0.0 0.00 0.00 0.00 54 1002.7
20260507033724 2 0.0 0.0 0.00 0.00 0.00 56 1002.7
20260507033422 2 0.0 0.0 0.00 0.00 0.00 57 1002.7
20260507033121 3 0.0 0.0 0.00 0.00 0.00 54 1002.7
20260507032818 2 0.0 0.0 0.00 0.00 0.00 56 1002.6
20260507032211 2 0.0 0.0 0.00 0.00 0.00 55 1002.7
20260507031909 3 0.0 0.0 0.00 0.00 0.00 52 1002.6
20260507031606 4 0.0 0.0 0.00 0.00 0.00 51 1002.6
20260507031304 4 0.0 0.0 0.00 0.00 0.00 51 1002.7
20260507031003 4 0.0 0.0 0.00 0.00 0.00 51 1002.7
20260507030702 4 0.0 0.0 0.00 0.00 0.00 51 1002.7
20260507030058 5 0.0 0.0 0.00 0.00 0.00 50 1002.5
20260507025756 5 0.0 0.0 0.00 0.00 0.00 51 1002.6
20260507025152 4 0.0 0.0 0.00 0.00 0.00 51 1002.6
20260507024850 5 0.0 0.0 0.00 0.00 0.00 50 1002.6
20260507024549 5 0.0 0.0 0.00 0.00 0.00 48 1002.6
20260507024246 5 0.0 0.0 0.00 0.00 0.00 49 1002.6
20260507023643 5 0.0 0.0 0.00 0.00 0.00 50 1002.6
20260507023342 5 0.0 0.0 0.00 0.00 0.00 49 1002.6
20260507023039 5 0.0 0.0 0.00 0.00 0.00 49 1002.6
20260507022738 5 0.0 0.0 0.00 0.00 0.00 49 1002.6
20260507022134 4 0.0 0.0 0.00 0.00 0.00 52 1002.5
20260507021833 3 0.0 0.0 0.00 0.00 0.00 53 1002.5
20260507021530 4 0.0 0.0 0.00 0.00 0.00 51 1002.5
20260507021228 5 0.0 0.0 0.00 0.00 0.00 50 1002.4
20260507020925 5 0.0 0.0 0.00 0.00 0.00 50 1002.4
20260507020616 5 0.0 0.0 0.00 0.00 0.00 49 1002.3
20260507020314 5 0.0 0.0 0.00 0.00 0.00 49 1002.3
20260507020011 5 0.0 0.0 0.00 0.00 0.00 48 1002.3
20260507015710 6 0.0 0.0 0.00 0.00 0.00 46 1002.4
20260507015407 6 0.0 0.0 0.00 0.00 0.00 47 1002.4
20260507015059 5 0.0 0.0 0.00 0.00 0.00 48 1002.3
20260507014757 5 0.0 0.0 0.00 0.00 0.00 50 1002.3
20260507014455 4 0.0 0.0 0.00 0.00 0.00 51 1002.3
20260507013542 5 0.0 0.0 0.00 0.00 0.00 49 1002.4
20260507013239 5 0.0 0.0 0.00 0.00 0.00 50 1002.3
20260507012937 5 0.0 0.0 0.00 0.00 0.00 50 1002.3
20260507012333 5 0.0 0.0 0.00 0.00 0.00 52 1002.2
20260507012031 3 0.0 0.0 0.00 0.00 0.00 53 1002.2
20260507011729 4 0.0 0.0 0.00 0.00 0.00 51 1002.2
20260507011427 3 0.0 0.0 0.00 0.00 0.00 53 1002.2
20260507011126 3 0.0 0.0 0.00 0.00 0.00 54 1002.2
20260507010824 2 0.0 0.0 0.00 0.00 0.00 55 1002.2
20260507010521 3 0.0 0.0 0.00 0.00 0.00 55 1002.2
20260507010218 3 0.0 0.0 0.00 0.00 0.00 54 1002.1
20260507005615 4 0.0 0.0 0.00 0.00 0.00 50 1002.1
20260507005010 3 0.0 0.0 0.00 0.00 0.00 53 1002.0
20260507004708 3 0.0 0.0 0.00 0.00 0.00 55 1001.9
20260507004405 2 0.0 0.0 0.00 0.00 0.00 55 1001.9
20260507003759 4 0.0 0.0 0.00 0.00 0.00 51 1001.7
20260507003457 5 0.0 0.0 0.00 0.00 0.00 48 1001.7
20260507003155 5 0.0 0.0 0.00 0.00 0.00 48 1001.6
20260507002551 6 0.0 0.0 0.00 0.00 0.00 45 1001.5
20260507002248 6 0.0 0.0 0.00 0.00 0.00 45 1001.6
20260507001644 6 0.0 0.0 0.00 0.00 0.00 45 1001.6
20260507001342 6 0.0 0.0 0.00 0.00 0.00 46 1001.8
20260507001040 6 0.0 0.0 0.00 0.00 0.00 46 1001.8
20260507000436 5 0.0 0.0 0.00 0.00 0.00 48 1001.8
20260507000134 6 0.0 0.0 0.00 0.00 0.00 47 1001.7
20260506235832 6 0.0 0.0 0.00 0.00 0.00 47 1001.7
20260506235529 6 0.0 0.0 0.00 0.00 0.00 48 1001.7
20260506235227 5 0.0 0.0 0.00 0.00 0.00 47 1001.7
20260506234925 6 0.0 0.0 0.00 0.00 0.00 47 1001.6
20260506234322 5 0.0 0.0 0.00 0.00 0.00 49 1001.6
20260506233113 6 0.0 0.0 0.00 0.00 0.00 47 1001.7
20260506232810 6 0.0 0.0 0.00 0.00 0.00 46 1001.7
20260506232508 7 0.0 0.0 0.00 0.00 0.00 45 1001.7
20260506232205 7 0.0 0.0 0.00 0.00 0.00 45 1001.7
20260506231902 7 0.0 0.0 0.00 0.00 0.00 45 1001.7
20260506231600 7 0.0 0.0 0.00 0.00 0.00 45 1001.8
20260506231258 7 0.0 0.0 0.00 0.00 0.00 44 1001.7
20260506230655 9 0.0 0.0 0.00 0.00 0.00 42 1001.7
20260506230352 9 0.0 0.0 0.00 0.00 0.00 42 1001.7
20260506230050 9 0.0 0.0 0.00 0.00 0.00 42 1001.7
20260506225748 8 0.0 0.0 0.00 0.00 0.00 43 1001.7
20260506225446 9 0.0 0.0 0.00 0.00 0.00 43 1001.6
20260506225143 8 0.0 0.0 0.00 0.00 0.00 43 1001.5
20260506224539 9 0.0 0.0 0.00 0.00 0.00 43 1001.4
20260506223934 9 0.0 0.0 0.00 0.00 0.00 44 1001.3
20260506223630 9 0.0 0.0 0.00 0.00 0.00 45 1001.3
20260506223328 8 0.0 0.0 0.00 0.00 0.00 45 1001.2
20260506222724 8 0.0 0.0 0.00 0.00 0.00 46 1001.1
20260506222119 7 0.0 0.0 0.00 0.00 0.00 48 1001.1
20260506221816 7 0.0 0.0 0.00 0.00 0.00 49 1001.0
20260506221515 7 0.0 0.0 0.00 0.00 0.00 50 1000.9
20260506221213 6 0.0 0.0 0.00 0.00 0.00 50 1000.9
20260506220608 7 0.0 0.0 0.00 0.00 0.00 47 1000.9
20260506220306 8 0.0 0.0 0.00 0.00 0.00 47 1000.8
20260506220003 8 0.0 0.0 0.00 0.00 0.00 46 1000.8
20260506215653 8 0.0 0.0 0.00 0.00 0.00 46 1000.8
20260506215051 10 0.0 0.0 0.00 0.00 0.00 44 1000.9
20260506214748 10 0.0 0.0 0.00 0.00 0.00 44 1000.9
20260506214445 10 0.0 0.0 0.00 0.00 0.00 44 1000.9
20260506213538 9 0.0 0.0 0.00 0.00 0.00 44 1000.9
20260506213236 10 0.0 0.0 0.00 0.00 0.00 44 1000.8
20260506212934 10 0.0 0.0 0.00 0.00 0.00 44 1000.8
20260506212330 10 0.0 0.0 0.00 0.00 0.00 45 1000.8
20260506212028 10 0.0 0.0 0.00 0.00 0.00 45 1000.7
20260506211726 10 0.0 0.0 0.00 0.00 0.00 44 1000.7
20260506211425 10 0.0 0.0 0.00 0.00 0.00 45 1000.7
20260506211122 10 0.0 0.0 0.00 0.00 0.00 45 1000.7
20260506210821 10 0.0 0.0 0.00 0.00 0.00 46 1000.8
20260506210520 9 0.0 0.0 0.00 0.00 0.00 46 1000.7
20260506205613 8 0.0 0.0 0.00 0.00 0.00 46 1000.7
20260506205008 9 0.0 0.0 0.00 0.00 0.00 46 1000.5
20260506204705 9 0.0 0.0 0.00 0.00 0.00 46 1000.5
20260506204404 9 0.0 0.0 0.00 0.00 0.00 46 1000.5
20260506204101 9 0.0 0.0 0.00 0.00 0.00 45 1000.6
20260506203759 10 0.0 0.0 0.00 0.00 0.00 45 1000.5
20260506203456 10 0.0 0.0 0.00 0.00 0.00 45 1000.5
20260506203154 10 0.0 0.0 0.00 0.00 0.00 45 1000.5
20260506202852 10 0.0 0.0 0.00 0.00 0.00 45 1000.5
20260506202548 10 0.0 0.0 0.00 0.00 0.00 45 1000.5
20260506202247 10 0.0 0.0 0.00 0.00 0.00 45 1000.5
20260506201642 10 0.0 0.0 0.00 0.00 0.00 46 1000.5
20260506201341 10 0.0 0.0 0.00 0.00 0.00 46 1000.5
20260506201039 10 0.0 0.0 0.00 0.00 0.00 46 1000.5
20260506200737 10 0.0 0.0 0.00 0.00 0.00 47 1000.5
20260506200434 9 0.0 0.0 0.00 0.00 0.00 47 1000.4
20260506195830 8 0.0 0.0 0.00 0.00 0.00 48 1000.4
20260506195528 8 0.0 0.0 0.00 0.00 0.00 49 1000.4
20260506195226 10 0.0 0.0 0.00 0.00 0.00 46 1000.4
20260506194617 10 0.0 0.0 0.00 0.00 0.00 45 1000.4
20260506194314 10 0.0 0.0 0.00 0.00 0.00 46 1000.4
20260506194012 10 0.0 0.0 0.00 0.00 0.00 45 1000.3
20260506193106 10 0.0 0.0 0.00 0.00 0.00 45 1000.1
20260506192803 10 0.0 0.0 0.00 0.00 0.00 45 1000.1
20260506192502 10 0.0 0.0 0.00 0.00 0.00 45 1000.1
20260506192200 10 0.0 0.0 0.00 0.00 0.00 45 1000.2
20260506191858 10 0.0 0.0 0.00 0.00 0.00 45 1000.2
20260506191555 10 0.0 0.0 0.00 0.00 0.00 45 1000.2
20260506191252 10 0.0 0.0 0.00 0.00 0.00 45 1000.2
20260506190950 10 0.0 0.0 0.00 0.00 0.00 45 1000.1
20260506190044 10 0.0 0.0 0.00 0.00 0.00 45 999.9
20260506185741 10 0.0 0.0 0.00 0.00 0.00 46 999.9
20260506185137 10 0.0 0.0 0.00 0.00 0.00 46 999.9
20260506184230 11 0.0 0.0 0.00 0.00 0.00 45 999.8
20260506183928 11 0.0 0.0 0.00 0.00 0.00 44 999.9
20260506182719 11 0.0 0.0 0.00 0.00 0.00 44 999.7
20260506182114 11 0.0 0.0 0.00 0.00 0.00 44 999.7
20260506181812 11 0.0 0.0 0.00 0.00 0.00 44 999.6
20260506181510 11 0.0 0.0 0.00 0.00 0.00 44 999.6
20260506181208 11 0.0 0.0 0.00 0.00 0.00 44 999.6
20260506180558 11 0.0 0.0 0.00 0.00 0.00 44 999.5
20260506180256 11 0.0 0.0 0.00 0.00 0.00 45 999.5
20260506175954 11 0.0 0.0 0.00 0.00 0.00 45 999.4
20260506175653 11 0.0 0.0 0.00 0.00 0.00 45 999.4
20260506175048 11 0.0 0.0 0.00 0.00 0.00 45 999.3
20260506174745 11 0.0 0.0 0.00 0.00 0.00 45 999.3
20260506174444 11 0.0 0.0 0.00 0.00 0.00 46 999.2
20260506174141 11 0.0 0.0 0.00 0.00 0.00 46 999.2
20260506173538 11 0.0 0.0 0.00 0.00 0.00 45 999.2
20260506173237 11 0.0 0.0 0.00 0.00 0.00 46 999.2
20260506172934 11 0.0 0.0 0.00 0.00 0.00 46 999.3
20260506172329 11 0.0 0.0 0.00 0.00 0.00 46 999.3
20260506171422 11 0.0 0.0 0.00 0.00 0.00 45 999.2
20260506170818 12 0.0 0.0 0.00 0.00 0.00 45 999.3
20260506170516 12 0.0 0.0 0.00 0.00 0.00 45 999.2
20260506165610 11 0.0 0.0 0.00 0.00 0.00 45 999.2
20260506165006 11 0.0 0.0 0.00 0.00 0.00 45 999.1
20260506164703 11 0.0 0.0 0.00 0.00 0.00 45 999.1
20260506164402 11 0.0 0.0 0.00 0.00 0.00 45 999.0
20260506163758 11 0.0 0.0 0.00 0.00 0.00 45 998.9
20260506163455 11 0.0 0.0 0.00 0.00 0.00 45 999.0
20260506163153 11 0.0 0.0 0.00 0.00 0.00 46 999.0
20260506162851 12 0.0 0.0 0.00 0.00 0.00 44 999.1
20260506162638 12 0.0 0.0 0.00 0.00 0.00 43 999.1
20260506162549 12 0.0 0.0 0.00 0.00 0.00 43 999.1
20260506162247 12 0.0 0.0 0.00 0.00 0.00 43 999.1
20260506161643 12 0.0 0.0 0.00 0.00 0.00 44 999.1
20260506161341 12 0.0 0.0 0.00 0.00 0.00 43 999.1
20260506161038 12 0.0 0.0 0.00 0.00 0.00 43 999.2
20260506160735 12 0.0 0.0 0.00 0.00 0.00 43 999.2
20260506155829 12 0.0 0.0 0.00 0.00 0.00 43 999.2
20260506154924 12 0.0 0.0 0.00 0.00 0.00 43 999.4
20260506154622 12 0.0 0.0 0.00 0.00 0.00 43 999.4
20260506154016 12 0.0 0.0 0.00 0.00 0.00 44 999.3
20260506153714 12 0.0 0.0 0.00 0.00 0.00 43 999.4
20260506153105 12 0.0 0.0 0.00 0.00 0.00 44 999.3
20260506152801 12 0.0 0.0 0.00 0.00 0.00 43 999.4
20260506152156 12 0.0 0.0 0.00 0.00 0.00 43 999.4
20260506151854 13 0.0 0.0 0.00 0.00 0.00 43 999.3
20260506151553 13 0.0 0.0 0.00 0.00 0.00 42 999.2
20260506150646 13 0.0 0.0 0.00 0.00 0.00 43 999.2
20260506150344 13 0.0 0.0 0.00 0.00 0.00 42 999.2
20260506145739 13 0.0 0.0 0.00 0.00 0.00 42 999.1
20260506145437 13 0.0 0.0 0.00 0.00 0.00 43 999.1
20260506145135 13 0.0 0.0 0.00 0.00 0.00 43 999.1
20260506144531 13 0.0 0.0 0.00 0.00 0.00 44 999.0
20260506144228 12 0.0 0.0 0.00 0.00 0.00 44 999.0
20260506143927 12 0.0 0.0 0.00 0.00 0.00 44 999.0
20260506143624 12 0.0 0.0 0.00 0.00 0.00 44 999.0
20260506143322 12 0.0 0.0 0.00 0.00 0.00 45 999.0
20260506142719 12 0.0 0.0 0.00 0.00 0.00 44 999.1
20260506142417 12 0.0 0.0 0.00 0.00 0.00 44 999.1
20260506142116 13 0.0 0.0 0.00 0.00 0.00 44 999.2
20260506141814 12 0.0 0.0 0.00 0.00 0.00 44 999.1
20260506141512 12 0.0 0.0 0.00 0.00 0.00 45 999.1
20260506141209 12 0.0 0.0 0.00 0.00 0.00 45 999.1
20260506140606 12 0.0 0.0 0.00 0.00 0.00 45 999.1
20260506140002 12 0.0 0.0 0.00 0.00 0.00 44 999.1
20260506135358 12 0.0 0.0 0.00 0.00 0.00 45 999.1
20260506135057 12 0.0 0.0 0.00 0.00 0.00 45 999.1
20260506134755 12 0.0 0.0 0.00 0.00 0.00 44 999.1
20260506134452 12 0.0 0.0 0.00 0.00 0.00 44 999.1
20260506134151 12 0.0 0.0 0.00 0.00 0.00 44 999.1
20260506133538 12 0.0 0.0 0.00 0.00 0.00 44 999.0
20260506133235 12 0.0 0.0 0.00 0.00 0.00 44 999.0
20260506132934 13 0.0 0.0 0.00 0.00 0.00 44 999.0
20260506132632 13 0.0 0.0 0.00 0.00 0.00 44 999.1
20260506132330 13 0.0 0.0 0.00 0.00 0.00 44 999.1
20260506132029 13 0.0 0.0 0.00 0.00 0.00 44 999.0
20260506131727 13 0.0 0.0 0.00 0.00 0.00 44 998.9
20260506131424 13 0.0 0.0 0.00 0.00 0.00 44 998.8
20260506131122 13 0.0 0.0 0.00 0.00 0.00 45 998.8
20260506130821 13 0.0 0.0 0.00 0.00 0.00 44 998.8
20260506130519 13 0.0 0.0 0.00 0.00 0.00 44 998.8
20260506125612 12 0.0 0.0 0.00 0.00 0.00 45 999.0
20260506125008 12 0.0 0.0 0.00 0.00 0.00 46 998.9
20260506124403 12 0.0 0.0 0.00 0.00 0.00 46 998.8
20260506123758 12 0.0 0.0 0.00 0.00 0.00 46 998.8
20260506123456 12 0.0 0.0 0.00 0.00 0.00 46 998.9
20260506123155 12 0.0 0.0 0.00 0.00 0.00 46 998.9
20260506122854 12 0.0 0.0 0.00 0.00 0.00 46 998.9
20260506122552 12 0.0 0.0 0.00 0.00 0.00 46 998.9
20260506122251 12 0.0 0.0 0.00 0.00 0.00 46 998.8
20260506121043 12 0.0 0.0 0.00 0.00 0.00 45 998.9
20260506120740 12 0.0 0.0 0.00 0.00 0.00 45 999.0
20260506120437 12 0.0 0.0 0.00 0.00 0.00 45 998.9
20260506115528 13 0.0 0.0 0.00 0.00 0.00 44 998.8
20260506115226 13 0.0 0.0 0.00 0.00 0.00 44 998.7
20260506114618 13 0.0 0.0 0.00 0.00 0.00 44 998.6
20260506114317 13 0.0 0.0 0.00 0.00 0.00 44 998.6
20260506114013 13 0.0 0.0 0.00 0.00 0.00 44 998.5
20260506113711 13 0.0 0.0 0.00 0.00 0.00 44 998.4
20260506113408 13 0.0 0.0 0.00 0.00 0.00 43 998.4
20260506113106 13 0.0 0.0 0.00 0.00 0.00 43 998.3
20260506112803 13 0.0 0.0 0.00 0.00 0.00 43 998.2
20260506112200 13 0.0 0.0 0.00 0.00 0.00 44 998.2
20260506111859 13 0.0 0.0 0.00 0.00 0.00 44 998.2
20260506111557 13 0.0 0.0 0.00 0.00 0.00 44 998.1
20260506110651 13 0.0 0.0 0.00 0.00 0.00 43 998.2
20260506110340 13 0.0 0.0 0.00 0.00 0.00 43 998.2
20260506110038 13 0.0 0.0 0.00 0.00 0.00 43 998.3
20260506105736 13 0.0 0.0 0.00 0.00 0.00 43 998.2
20260506105435 13 0.0 0.0 0.00 0.00 0.00 43 998.2
20260506104529 14 0.0 0.0 0.00 0.00 0.00 43 998.1
20260506104227 14 0.0 0.0 0.00 0.00 0.00 42 998.0
20260506103924 14 0.0 0.0 0.00 0.00 0.00 43 998.0
20260506103615 13 0.0 0.0 0.00 0.00 0.00 43 997.9
20260506103009 13 0.0 0.0 0.00 0.00 0.00 44 997.9
20260506102708 13 0.0 0.0 0.00 0.00 0.00 44 997.9
20260506102407 13 0.0 0.0 0.00 0.00 0.00 44 997.8
20260506102104 13 0.0 0.0 0.00 0.00 0.00 44 997.8
20260506101802 13 0.0 0.0 0.00 0.00 0.00 45 997.8
20260506101500 13 0.0 0.0 0.00 0.00 0.00 45 997.7
20260506101159 13 0.0 0.0 0.00 0.00 0.00 45 997.7
20260506100857 13 0.0 0.0 0.00 0.00 0.00 45 997.7
20260506100556 13 0.0 0.0 0.00 0.00 0.00 44 997.7
20260506100253 13 0.0 0.0 0.00 0.00 0.00 45 997.7
20260506095044 13 0.0 0.0 0.00 0.00 0.00 45 997.6
20260506094441 12 0.0 0.0 0.00 0.00 0.00 45 997.6
20260506093534 12 0.0 0.0 0.00 0.00 0.00 45 997.6
20260506093233 12 0.0 0.0 0.00 0.00 0.00 46 997.5
20260506092326 12 0.0 0.0 0.00 0.00 0.00 46 997.4
20260506091720 12 0.0 0.0 0.00 0.00 0.00 46 997.4
20260506091418 12 0.0 0.0 0.00 0.00 0.00 46 997.4
20260506091115 12 0.0 0.0 0.00 0.00 0.00 46 997.3
20260506090813 12 0.0 0.0 0.00 0.00 0.00 46 997.3
20260506090511 12 0.0 0.0 0.00 0.00 0.00 46 997.3
20260506090209 12 0.0 0.0 0.00 0.00 0.00 46 997.2
20260506085604 12 0.0 0.0 0.00 0.00 0.00 46 997.1
20260506084053 12 0.0 0.0 0.00 0.00 0.00 46 997.0
20260506083750 12 0.0 0.0 0.00 0.00 0.00 46 997.0
20260506083449 12 0.0 0.0 0.00 0.00 0.00 47 997.0
20260506082534 12 0.0 0.0 0.00 0.00 0.00 47 996.9
20260506082232 12 0.0 0.0 0.00 0.00 0.00 47 996.8
20260506081930 12 0.0 0.0 0.00 0.00 0.00 47 996.9
20260506081627 12 0.0 0.0 0.00 0.00 0.00 47 996.9
20260506081321 12 0.0 0.0 0.00 0.00 0.00 47 996.9
20260506081011 12 0.0 0.0 0.00 0.00 0.00 48 996.9
20260506080702 12 0.0 0.0 0.00 0.00 0.00 48 996.8
20260506080359 12 0.0 0.0 0.00 0.00 0.00 48 996.9
20260506073327 12 0.0 0.0 0.00 0.00 0.00 48 996.6
20260506072108 11 0.0 0.0 0.00 0.00 0.00 50 996.6
20260506071806 11 0.0 0.0 0.00 0.00 0.00 50 996.6
20260506071502 11 0.0 0.0 0.00 0.00 0.00 51 996.6
20260506071200 10 0.0 0.0 0.00 0.00 0.00 51 996.6
20260506070858 10 0.0 0.0 0.00 0.00 0.00 52 996.6
20260506070555 10 0.0 0.0 0.00 0.00 0.00 53 996.6
20260506070253 10 0.0 0.0 0.00 0.00 0.00 51 996.6
20260506062325 10 0.0 0.0 0.00 0.00 0.00 51 996.4
20260506061720 10 0.0 0.0 0.00 0.00 0.00 51 996.3